| time (UTC) | temp F | wind direction | speed knots | gust knots | rain 1hr in | rain 24hr in | rain mn in | humidity % | barometer mb |
| 20260508025010 | 47 | 257 | 0.0 | 1.7 | 0.00 | 0.00 | 0.00 | 91 | 1017.2 |
| 20260508024010 | 46 | 257 | 0.0 | 1.7 | 0.00 | 0.00 | 0.00 | 90 | 1017.2 |
| 20260508023011 | 46 | 257 | 0.0 | 2.6 | 0.00 | 0.00 | 0.00 | 90 | 1017.2 |
| 20260508022010 | 46 | 257 | 0.0 | 0.9 | 0.00 | 0.00 | 0.00 | 88 | 1017.2 |
| 20260508021011 | 46 | 257 | 0.0 | 0.0 | 0.00 | 0.00 | 0.00 | 83 | 1017.2 |
| 20260508020010 | 46 | 257 | 0.0 | 0.0 | 0.00 | 0.00 | 0.00 | 83 | 1017.2 |
| 20260508015010 | 47 | 257 | 0.0 | 0.0 | 0.00 | 0.00 | 0.00 | 83 | 1017.1 |
| 20260508014010 | 47 | 257 | 0.0 | 1.7 | 0.00 | 0.00 | 0.00 | 83 | 1017.2 |
| 20260508013010 | 47 | 257 | 0.9 | 2.6 | 0.00 | 0.00 | 0.00 | 83 | 1017.2 |
| 20260508012010 | 48 | 257 | 0.0 | 1.7 | 0.00 | 0.00 | 0.00 | 83 | 1017.3 |
| 20260508011010 | 48 | 257 | 0.0 | 3.5 | 0.00 | 0.00 | 0.00 | 83 | 1017.2 |
| 20260508010010 | 48 | 256 | 0.0 | 0.0 | 0.00 | 0.00 | 0.00 | 83 | 1017.3 |
| 20260508005010 | 48 | 256 | 0.0 | 1.7 | 0.00 | 0.00 | 0.00 | 83 | 1017.4 |
| 20260508004010 | 48 | 256 | 0.9 | 2.6 | 0.00 | 0.00 | 0.00 | 83 | 1017.4 |
| 20260508003010 | 48 | 255 | 0.9 | 2.6 | 0.00 | 0.00 | 0.00 | 82 | 1017.5 |
| 20260508002010 | 49 | 262 | 0.0 | 0.0 | 0.00 | 0.00 | 0.00 | 82 | 1017.5 |
| 20260508001011 | 49 | 262 | 0.0 | 0.0 | 0.00 | 0.00 | 0.00 | 82 | 1017.5 |
| 20260508000010 | 49 | 262 | 0.9 | 2.6 | 0.00 | 0.00 | 0.00 | 82 | 1017.5 |
| 20260507235010 | 49 | 257 | 0.9 | 2.6 | 0.00 | 0.00 | 0.00 | 83 | 1017.6 |
| 20260507234010 | 49 | 257 | 0.0 | 0.0 | 0.00 | 0.00 | 0.00 | 83 | 1017.7 |
| 20260507233010 | 49 | 257 | 0.0 | 0.9 | 0.00 | 0.00 | 0.00 | 83 | 1017.6 |
| 20260507232009 | 49 | 257 | 0.9 | 1.7 | 0.00 | 0.00 | 0.00 | 83 | 1017.7 |
| 20260507231010 | 49 | 257 | 0.0 | 0.0 | 0.00 | 0.00 | 0.00 | 83 | 1017.6 |
| 20260507230010 | 49 | 257 | 0.0 | 0.0 | 0.00 | 0.00 | 0.00 | 83 | 1017.6 |
| 20260507225010 | 49 | 257 | 0.0 | 0.9 | 0.00 | 0.00 | 0.00 | 83 | 1017.6 |
| 20260507223010 | 49 | 257 | 0.0 | 0.9 | 0.00 | 0.00 | 0.00 | 82 | 1017.5 |
| 20260507222009 | 49 | 257 | 0.0 | 0.0 | 0.00 | 0.00 | 0.00 | 82 | 1017.4 |
| 20260507221010 | 49 | 257 | 0.0 | 1.7 | 0.00 | 0.00 | 0.00 | 82 | 1017.5 |
| 20260507220009 | 49 | 257 | 0.0 | 0.0 | 0.00 | 0.09 | 0.09 | 81 | 1017.3 |
| 20260507215017 | 49 | 257 | 0.0 | 0.0 | 0.00 | 0.09 | 0.09 | 81 | 1017.3 |
| 20260507214009 | 49 | 257 | 0.0 | 2.6 | 0.00 | 0.09 | 0.09 | 80 | 1017.3 |
| 20260507213009 | 49 | 257 | 1.7 | 2.6 | 0.00 | 0.09 | 0.09 | 80 | 1017.2 |
| 20260507212009 | 49 | 258 | 0.0 | 1.7 | 0.00 | 0.09 | 0.09 | 78 | 1017.1 |
| 20260507211009 | 49 | 258 | 0.0 | 2.6 | 0.00 | 0.09 | 0.09 | 79 | 1017.1 |
| 20260507210009 | 49 | 258 | 0.9 | 2.6 | 0.00 | 0.09 | 0.09 | 78 | 1017.2 |
| 20260507205008 | 50 | 258 | 0.9 | 2.6 | 0.00 | 0.09 | 0.09 | 78 | 1017.1 |
| 20260507204008 | 50 | 258 | 0.9 | 2.6 | 0.00 | 0.09 | 0.09 | 77 | 1017.1 |
| 20260507203008 | 50 | 258 | 0.9 | 2.6 | 0.00 | 0.09 | 0.09 | 77 | 1016.9 |
| 20260507202013 | 50 | 258 | 0.9 | 2.6 | 0.00 | 0.09 | 0.09 | 77 | 1016.9 |
| 20260507201013 | 50 | 258 | 0.9 | 2.6 | 0.00 | 0.09 | 0.09 | 77 | 1016.9 |
| 20260507200013 | 50 | 258 | 0.9 | 3.5 | 0.00 | 0.09 | 0.09 | 77 | 1016.8 |
| 20260507195013 | 50 | 261 | 0.9 | 2.6 | 0.00 | 0.09 | 0.09 | 77 | 1016.8 |
| 20260507194013 | 50 | 261 | 0.0 | 2.6 | 0.00 | 0.09 | 0.09 | 77 | 1016.7 |
| 20260507193013 | 51 | 261 | 0.9 | 2.6 | 0.00 | 0.09 | 0.09 | 77 | 1016.7 |
| 20260507192013 | 51 | 261 | 0.9 | 2.6 | 0.00 | 0.09 | 0.09 | 76 | 1016.7 |
| 20260507191013 | 51 | 261 | 0.9 | 5.2 | 0.00 | 0.09 | 0.09 | 76 | 1016.5 |
| 20260507190013 | 51 | 255 | 0.9 | 2.6 | 0.00 | 0.09 | 0.09 | 76 | 1016.3 |
| 20260507185013 | 51 | 255 | 0.9 | 6.1 | 0.00 | 0.09 | 0.09 | 76 | 1016.3 |
| 20260507184013 | 51 | 257 | 1.7 | 3.5 | 0.00 | 0.09 | 0.09 | 75 | 1016.3 |
| 20260507183013 | 51 | 251 | 0.9 | 3.5 | 0.00 | 0.09 | 0.09 | 76 | 1016.2 |
| 20260507182013 | 51 | 250 | 0.9 | 3.5 | 0.00 | 0.09 | 0.09 | 75 | 1016.0 |
| 20260507181013 | 51 | 250 | 1.7 | 3.5 | 0.00 | 0.09 | 0.09 | 75 | 1015.8 |
| 20260507180012 | 51 | 250 | 2.6 | 6.1 | 0.00 | 0.09 | 0.09 | 74 | 1015.9 |
| 20260507175013 | 52 | 253 | 2.6 | 6.1 | 0.00 | 0.09 | 0.09 | 74 | 1015.9 |
| 20260507174013 | 52 | 288 | 2.6 | 6.1 | 0.00 | 0.09 | 0.09 | 73 | 1015.9 |
| 20260507173013 | 52 | 249 | 3.5 | 7.8 | 0.00 | 0.09 | 0.09 | 73 | 1015.7 |
| 20260507172013 | 52 | 251 | 4.3 | 7.8 | 0.00 | 0.09 | 0.09 | 72 | 1015.7 |
| 20260507171012 | 53 | 272 | 3.5 | 8.7 | 0.00 | 0.09 | 0.09 | 72 | 1015.6 |
| 20260507170012 | 53 | 266 | 2.6 | 7.8 | 0.00 | 0.09 | 0.09 | 72 | 1015.6 |
| 20260507165012 | 53 | 265 | 2.6 | 6.1 | 0.00 | 0.09 | 0.09 | 71 | 1015.6 |
| 20260507164013 | 53 | 241 | 3.5 | 9.6 | 0.00 | 0.09 | 0.09 | 72 | 1015.6 |
| 20260507163012 | 53 | 252 | 3.5 | 7.8 | 0.00 | 0.09 | 0.09 | 71 | 1015.5 |
| 20260507162012 | 53 | 280 | 3.5 | 7.8 | 0.00 | 0.09 | 0.09 | 70 | 1015.5 |
| 20260507161012 | 53 | 268 | 3.5 | 7.8 | 0.00 | 0.09 | 0.09 | 71 | 1015.3 |
| 20260507160012 | 53 | 243 | 4.3 | 9.6 | 0.00 | 0.09 | 0.09 | 69 | 1015.3 |
| 20260507155012 | 54 | 263 | 4.3 | 11.3 | 0.00 | 0.09 | 0.09 | 69 | 1015.2 |
| 20260507154012 | 54 | 240 | 2.6 | 8.7 | 0.00 | 0.09 | 0.09 | 71 | 1015.1 |
| 20260507153012 | 54 | 236 | 3.5 | 8.7 | 0.00 | 0.09 | 0.09 | 71 | 1015.0 |
| 20260507152012 | 54 | 271 | 2.6 | 8.7 | 0.00 | 0.09 | 0.09 | 70 | 1015.0 |
| 20260507151012 | 53 | 242 | 1.7 | 7.0 | 0.00 | 0.09 | 0.09 | 73 | 1015.1 |
| 20260507150012 | 53 | 276 | 3.5 | 9.6 | 0.00 | 0.09 | 0.09 | 71 | 1015.0 |
| 20260507145012 | 53 | 267 | 4.3 | 7.8 | 0.00 | 0.09 | 0.09 | 72 | 1015.1 |
| 20260507144012 | 53 | 223 | 3.5 | 8.7 | 0.00 | 0.09 | 0.09 | 72 | 1015.0 |
| 20260507143012 | 54 | 261 | 5.2 | 11.3 | 0.00 | 0.09 | 0.09 | 70 | 1015.1 |
| 20260507142012 | 54 | 242 | 3.5 | 10.4 | 0.00 | 0.09 | 0.09 | 72 | 1015.0 |
| 20260507141012 | 54 | 225 | 2.6 | 10.4 | 0.00 | 0.09 | 0.09 | 73 | 1015.1 |
| 20260507140011 | 53 | 256 | 6.1 | 9.6 | 0.00 | 0.09 | 0.09 | 71 | 1015.0 |
| 20260507135012 | 54 | 245 | 4.3 | 11.3 | 0.00 | 0.09 | 0.09 | 74 | 1015.0 |
| 20260507134012 | 53 | 232 | 2.6 | 7.0 | 0.00 | 0.09 | 0.09 | 77 | 1015.0 |
| 20260507133011 | 52 | 213 | 3.5 | 7.8 | 0.00 | 0.09 | 0.09 | 80 | 1015.0 |
| 20260507132011 | 51 | 250 | 3.5 | 7.8 | 0.00 | 0.09 | 0.09 | 79 | 1015.0 |
| 20260507131011 | 51 | 264 | 5.2 | 10.4 | 0.00 | 0.09 | 0.09 | 77 | 1015.1 |
| 20260507130011 | 51 | 259 | 4.3 | 10.4 | 0.00 | 0.09 | 0.09 | 76 | 1014.9 |
| 20260507125012 | 51 | 233 | 4.3 | 10.4 | 0.00 | 0.09 | 0.09 | 75 | 1014.9 |
| 20260507124011 | 52 | 238 | 6.1 | 13.0 | 0.00 | 0.09 | 0.09 | 73 | 1014.7 |
| 20260507123011 | 52 | 266 | 3.5 | 8.7 | 0.00 | 0.09 | 0.09 | 74 | 1014.6 |
| 20260507122012 | 53 | 250 | 7.0 | 13.9 | 0.00 | 0.09 | 0.09 | 73 | 1014.5 |
| 20260507121011 | 54 | 267 | 4.3 | 11.3 | 0.00 | 0.09 | 0.09 | 72 | 1014.4 |
| 20260507120011 | 53 | 269 | 5.2 | 11.3 | 0.00 | 0.09 | 0.09 | 73 | 1014.3 |
| 20260507115012 | 53 | 230 | 5.2 | 12.2 | 0.00 | 0.09 | 0.09 | 75 | 1014.3 |
| 20260507114011 | 53 | 241 | 4.3 | 11.3 | 0.00 | 0.09 | 0.09 | 73 | 1014.3 |
| 20260507113011 | 53 | 250 | 6.1 | 13.0 | 0.00 | 0.09 | 0.09 | 73 | 1014.3 |
| 20260507112012 | 54 | 285 | 4.3 | 12.2 | 0.00 | 0.09 | 0.09 | 72 | 1014.1 |
| 20260507111011 | 54 | 219 | 4.3 | 13.0 | 0.00 | 0.09 | 0.09 | 75 | 1014.0 |
| 20260507110011 | 54 | 192 | 4.3 | 12.2 | 0.00 | 0.09 | 0.09 | 74 | 1013.9 |
| 20260507105011 | 54 | 215 | 4.3 | 9.6 | 0.00 | 0.09 | 0.09 | 75 | 1013.9 |
| 20260507104010 | 54 | 199 | 4.3 | 10.4 | 0.00 | 0.09 | 0.09 | 76 | 1013.9 |
| 20260507103010 | 54 | 184 | 4.3 | 9.6 | 0.00 | 0.09 | 0.09 | 80 | 1013.8 |
| 20260507102010 | 53 | 229 | 4.3 | 9.6 | 0.01 | 0.09 | 0.09 | 80 | 1013.7 |
| 20260507101011 | 53 | 229 | 4.3 | 9.6 | 0.01 | 0.09 | 0.09 | 80 | 1013.7 |
| 20260507100012 | 52 | 226 | 3.5 | 9.6 | 0.02 | 0.09 | 0.09 | 83 | 1013.7 |
| 20260507095011 | 52 | 250 | 2.6 | 9.6 | 0.02 | 0.09 | 0.09 | 87 | 1013.6 |
| 20260507094011 | 51 | 248 | 3.5 | 9.6 | 0.02 | 0.09 | 0.09 | 84 | 1013.4 |
| 20260507093010 | 51 | 206 | 3.5 | 9.6 | 0.02 | 0.09 | 0.09 | 84 | 1013.4 |
| 20260507092011 | 51 | 255 | 3.5 | 7.8 | 0.01 | 0.08 | 0.08 | 85 | 1013.3 |
| 20260507091011 | 51 | 254 | 2.6 | 6.1 | 0.02 | 0.08 | 0.08 | 85 | 1013.1 |
| 20260507090010 | 52 | 233 | 1.7 | 8.7 | 0.01 | 0.07 | 0.07 | 87 | 1013.0 |
| 20260507085010 | 52 | 202 | 3.5 | 9.6 | 0.02 | 0.07 | 0.07 | 85 | 1012.7 |
| 20260507084010 | 52 | 280 | 3.5 | 8.7 | 0.02 | 0.07 | 0.07 | 90 | 1012.6 |
| 20260507083010 | 51 | 235 | 4.3 | 9.6 | 0.02 | 0.07 | 0.07 | 89 | 1012.5 |
| 20260507082010 | 51 | 228 | 3.5 | 7.8 | 0.02 | 0.06 | 0.06 | 90 | 1012.4 |
| 20260507081010 | 51 | 283 | 1.7 | 6.1 | 0.02 | 0.06 | 0.06 | 90 | 1012.2 |
| 20260507080011 | 51 | 283 | 1.7 | 6.1 | 0.02 | 0.06 | 0.06 | 90 | 1012.2 |
| 20260507075009 | 51 | 261 | 1.7 | 4.3 | 0.02 | 0.06 | 0.06 | 89 | 1012.1 |
| 20260507074010 | 50 | 261 | 2.6 | 7.0 | 0.02 | 0.06 | 0.06 | 88 | 1012.0 |
| 20260507073009 | 51 | 252 | 1.7 | 5.2 | 0.02 | 0.05 | 0.05 | 88 | 1011.7 |
| 20260507072010 | 51 | 252 | 1.7 | 5.2 | 0.02 | 0.05 | 0.05 | 88 | 1011.7 |
| 20260507071010 | 51 | 234 | 2.6 | 7.0 | 0.02 | 0.05 | 0.05 | 88 | 1011.6 |
| 20260507070012 | 51 | 234 | 1.7 | 4.3 | 0.01 | 0.04 | 0.04 | 89 | 1011.5 |
| 20260507065011 | 51 | 250 | 2.6 | 7.0 | 0.01 | 0.04 | 0.04 | 88 | 1011.5 |
| 20260507064009 | 51 | 215 | 2.6 | 7.0 | 0.01 | 0.04 | 0.04 | 88 | 1011.4 |
| 20260507063011 | 51 | 209 | 1.7 | 6.1 | 0.00 | 0.03 | 0.03 | 88 | 1011.3 |
| 20260507062010 | 51 | 244 | 2.6 | 6.1 | 0.00 | 0.03 | 0.03 | 88 | 1011.2 |
| 20260507061010 | 51 | 246 | 2.6 | 7.0 | 0.00 | 0.03 | 0.03 | 89 | 1011.1 |
| 20260507060010 | 51 | 248 | 1.7 | 6.1 | 0.00 | 0.03 | 0.03 | 89 | 1011.0 |
| 20260507055009 | 51 | 273 | 1.7 | 7.0 | 0.00 | 0.03 | 0.03 | 89 | 1010.8 |
| 20260507054010 | 51 | 223 | 1.7 | 7.8 | 0.00 | 0.03 | 0.03 | 89 | 1010.8 |
| 20260507053009 | 50 | 234 | 3.5 | 10.4 | 0.00 | 0.03 | 0.03 | 89 | 1010.7 |
| 20260507052010 | 50 | 194 | 1.7 | 7.8 | 0.00 | 0.03 | 0.03 | 89 | 1010.7 |
| 20260507051009 | 50 | 197 | 2.6 | 6.1 | 0.00 | 0.03 | 0.03 | 89 | 1010.5 |
| 20260507050010 | 50 | 196 | 0.9 | 4.3 | 0.00 | 0.03 | 0.03 | 89 | 1010.4 |
| 20260507045010 | 50 | 197 | 1.7 | 5.2 | 0.00 | 0.03 | 0.03 | 89 | 1010.3 |
| 20260507044009 | 50 | 202 | 1.7 | 4.3 | 0.00 | 0.03 | 0.03 | 89 | 1010.3 |
| 20260507043009 | 50 | 200 | 1.7 | 4.3 | 0.00 | 0.03 | 0.03 | 89 | 1010.2 |
| 20260507042010 | 50 | 200 | 0.9 | 4.3 | 0.00 | 0.03 | 0.03 | 89 | 1010.1 |
| 20260507041010 | 50 | 199 | 1.7 | 6.1 | 0.00 | 0.03 | 0.03 | 89 | 1009.9 |
| 20260507040010 | 50 | 201 | 0.9 | 5.2 | 0.00 | 0.03 | 0.03 | 89 | 1009.9 |
| 20260507035010 | 50 | 223 | 1.7 | 7.0 | 0.00 | 0.03 | 0.03 | 90 | 1009.8 |
| 20260507034008 | 50 | 208 | 1.7 | 5.2 | 0.00 | 0.03 | 0.03 | 90 | 1009.7 |
| 20260507033008 | 50 | 187 | 0.9 | 5.2 | 0.00 | 0.03 | 0.03 | 90 | 1009.6 |
| 20260507032008 | 50 | 213 | 0.9 | 3.5 | 0.00 | 0.03 | 0.03 | 90 | 1009.5 |
| 20260507031008 | 50 | 213 | 0.9 | 3.5 | 0.00 | 0.03 | 0.03 | 90 | 1009.5 |
| 20260507030009 | 50 | 213 | 0.9 | 4.3 | 0.00 | 0.03 | 0.03 | 90 | 1009.4 |